Regional Weather Roundup
Issued by NWS

Home | Current Version | Previous Version | Graphics & Text | Print | Product List | Glossary On
Versions: 1 2 3 4 5 6 7 8 9 10 11 12 13 14 15 16 17 18 19 20 21 22 23 24 25 26 27 28 29 30 31 32 33 34 35 36 37 38 39 40 41 42 43 44 45 46 47 48 49 50
000
ASUS43 KLMK 201202
RWRKY
KENTUCKY REGIONAL WEATHER ROUNDUP
NATIONAL WEATHER SERVICE LOUISVILLE KY
700 AM EST TUE FEB 20 2018

NOTE "FAIR" INDICATES FEW OR NO CLOUDS BELOW 12,000 FEET
WITH NO SIGNIFICANT WEATHER AND/OR OBSTRUCTIONS TO VISIBILITY.

KYZ001>023-026-027-061>063-070>075-201300-
WESTERN AND SOUTH CENTRAL KENTUCKY

CITY           SKY/WX    TMP DP  RH WIND       PRES   REMARKS
PADUCAH        MOCLDY    67  58  72 S10G22    30.06R
HENDERSON      NOT AVBL
OWENSBORO      NOT AVBL
HOPKINSVILLE   FAIR      67  55  66 S14G21    30.13R
BOWLING GREEN  FAIR      64  57  78 S10       30.18R
GLASGOW        NOT AVBL
$$

KYZ024-025-028>034-038-045-046-053-201300-
NORTH CENTRAL KENTUCKY

CITY           SKY/WX    TMP DP  RH WIND       PRES   REMARKS
LOUISVILLE/SDF MOCLDY    66  57  72 S8        30.13R
LOUISVILLE/LOU FAIR      65  58  78 S13       30.13S
FORT KNOX      FAIR      65  56  73 S20       30.13F
$$

KYZ035>037-039>044-047>052-055>060-089>105-201300-
NORTHEAST KENTUCKY

CITY           SKY/WX    TMP DP  RH WIND       PRES   REMARKS
LEXINGTON      FAIR      64  56  75 S16       30.20R
COVINGTON      FAIR      63  58  83 S16G24    30.12R
FRANKFORT      FAIR      66  55  67 S16G25    30.15S
$$

KYZ054-064>069-076>088-106>120-201300-
SOUTHEAST KENTUCKY

CITY           SKY/WX    TMP DP  RH WIND       PRES   REMARKS
JACKSON        FAIR      64  54  69 S7        30.26R
LONDON         FAIR      61  54  77 S7        30.26S
SOMERSET       FAIR      61  54  77 MISG      30.27R
MIDDLESBORO    MOCLDY    60  56  89 S6        30.32R
MONTICELLO     NOT AVBL
$$





USA.gov is the U.S. government's official web portal to all federal, state and local government web resources and services.